Location: Brunembert
(50.7122°N, 1.8935°E)
Time: 09:16:51
(UTC+00:00)

Cosmos 921 Rocket - Pass Details

Date: 22 April 2021
Orbit: 572 x 631 km, 75.8° (Epoch: 16 May)

Event Time Altitude Azimuth Distance (km) Brightness Sun altitude
Rises 21:04:34 0° 344° (NNW) 2,910 7.7 -17.2°
Reaches altitude 10° 21:07:04 10° 355° (N) 1,990 6.4 -17.4°
Maximum altitude 21:11:01 31° 58° (ENE) 1,090 4.2 -17.8°
Enters shadow 21:12:20 26° 91° (E) 1,219 4.2 -18.0°
